SCP
0 0 0 0 0 0 0 0 0 0 0 0 0 0 0 0 0 0 0 0 0 0 0 0 0 0 0 0 0 0 0 0 0 0 0 0 0 0 0 0 0 0 0
0 0 0 0 0 0 0 0 0 0 0 0 0 0 0 0 0 0 0 0 0 0 0 0 0 0 0 0 0 0 0 0 0 0 0 0 0 0 0 0 0 0 0
0 0 0 0 0 0 0 0 0 0 0 0 0 0 0 0 0 0 0 0 0 0 0 0 0 0 0 0 0 0 0 0 0 0 0 0 0 0 0 0 0 0 0
0 0 0 0 0 0 0 0 0 0 0 0 0 0 0 0 0 0 0 0 0 0 0 0 0 0 0 0 0 0 0 0 0 0 0 0 0 0 0 0 0 0 0
0 0 0 0 0 0 0 0 0 0 0 0 0 0 0 0 0 0 0 0 0 0 0 0 0 0 0 0 0 0 0 0 0 0 0 0 0 0 0 0 0 0 0
0 0 0 0 0 0 0 0 0 0 0 0 0 0 0 0 0 0 0 0 0 0 0 0 0 0 0 0 0 0 0 0 0 0 0 0 0 0 0 0 0 0 0
0 0 0 0 0 0 0 0 0 0 0 0 0 0 0 0 0 0 0 0 0 0 0 0 0 0 0 0 0 0 0 0 0 0 0 0 0 0 0 0 0 0 0
0 0 0 0 0 0 0 0 0 0 0 0 0 0 0 0 0 0 0 0 0 0 0 0 0 0 0 0 0 0 0 0 0 0 0 0 0 0 0 0 0 0 0
0 0 0 0 0 0 0 0 0 0 0 0 0 0 0 0 0 0 0 0 0 0 0 0 0 0 0 0 0 0 0 0 0 0 0 0 0 0 0 0 0 0 0
0 0 0 0 0 0 0 0 0 0 0 0 0 0 0 0 0 0 0 0 0 0 0 0 0 0 0 0 0 0 0 0 0 0 0 0 0 0 0 0 0 0 0
0 0 0 0 0 0 0 0 0 0 0 0 0 0 0 0 0 0 0 0 0 0 0 0 0 0 0 0 0 0 0 0 0 0 0 0 0 0 0 0 0 0 0
0 0 0 0 0 0 0 0 0 0 0 0 0 0 0 0 0 0 0 0 0 0 0 0 0 0 0 0 0 0 0 0 0 0 0 0 0 0 0 0 0 0 0
0 0 0 0 0 0 0 0 0 0 0 0 0 0 0 0 0 0 0 0 0 0 0 0 0 0 0 0 0 0 0 0 0 0 0 0 0 0 0 0 0 0 0
0 0 0 0 0 0 0 0 0 0 0 0 0 0 0 0 0 0 0 0 0 0 0 0 0 0 0 0 0 0 0 0 0 0 0 0 0 0 0 0 0 0 0
0 0 0 0 0 1 1 1 1 1 0 0 0 0 0 0 0 0 0 0 0 0 0 0 0 0 0 0 0 0 0 0 0 0 0 0 0 0 0 0 0 0 0
0 0 0 0 0 1 1 1 1 1 1 1 1 0 0 0 0 0 0 0 0 0 0 0 0 0 0 0 0 0 0 0 0 0 0 0 0 0 0 0 0 0 0
0 0 0 1 1 1 1 1 1 1 1 1 1 1 0 0 0 0 0 0 0 0 0 0 0 0 0 0 0 0 0 0 0 0 0 0 0 0 0 0 0 0 0
0 0 1 1 1 1 1 1 1 1 1 1 1 1 0 0 0 0 0 0 0 0 0 0 0 0 0 0 0 0 0 0 0 0 0 0 0 0 0 0 0 0 0
0 0 1 1 1 0 0 0 1 1 1 1 1 1 0 0 0 0 0 0 0 0 0 0 0 0 0 0 0 0 0 0 0 0 0 0 0 0 0 0 0 0 0
0 0 0 1 1 0 0 0 0 0 0 1 1 0 0 0 0 0 0 0 0 0 0 0 0 0 0 0 0 0 0 0 0 0 0 0 0 0 0 0 0 0 0
0 0 0 0 0 0 0 0 0 0 0 0 0 0 0 0 0 0 0 0 0 0 0 0 0 0 0 0 0 0 0 0 0 0 0 0 0 0 0 0 0 0 0
0 0 0 0 0 0 0 0 0 0 0 0 0 0 0 0 0 0 0 0 0 0 0 0 0 0 0 0 0 0 0 0 0 0 0 0 0 0 0 0 0 0 0
0 0 0 0 0 0 0 0 0 0 0 0 0 0 0 0 0 0 0 0 0 0 0 0 0 0 0 0 0 0 0 0 0 0 0 0 0 0 0 0 0 0 0
0 0 0 0 0 0 0 0 0 0 0 0 0 0 0 0 0 0 0 0 0 0 0 0 0 0 0 0 0 0 0 0 0 0 0 0 0 0 0 0 0 0 0
0 0 0 0 0 0 0 0 0 0 0 0 0 0 0 0 0 0 0 0 0 0 0 0 0 0 0 0 0 0 0 0 0 0 0 0 0 0 0 0 0 0 0
0 0 0 0 0 0 0 0 0 0 0 0 0 0 0 0 0 0 0 0 0 0 0 0 0 0 0 0 0 0 0 0 0 0 0 0 0 0 0 0 0 0 0
Wind_Speed
9 10 10 10 12 12 12 12 12 12 13 13 13 13 14 14 14 14 14 16 18 19 20 20 21 21 21 20 20 20 21 22 23 24 24 24 24 24 24 22 19 16 25
12 12 11 10 12 12 12 12 12 12 13 13 13 13 13 14 14 14 14 16 18 19 20 20 20 20 20 19 19 19 19 18 19 21 22 21 23 24 24 24 22 17 25
13 13 11 10 12 12 12 12 12 13 13 13 13 14 14 14 14 13 14 16 18 20 20 20 20 20 19 19 18 18 18 17 18 18 17 11 16 24 24 24 24 25 25
14 12 11 11 12 13 12 12 12 13 13 13 14 14 14 14 14 14 15 17 19 20 20 20 19 19 19 18 18 18 19 19 18 17 11 10 11 22 24 24 25 25 25
12 11 13 13 13 13 13 12 12 13 13 13 14 14 14 14 14 15 17 18 19 19 19 19 19 19 18 17 17 17 17 18 17 14 10 9 9 21 24 24 24 24 24
11 12 13 13 13 14 13 12 12 13 13 14 14 14 14 14 15 16 17 18 18 18 19 18 18 18 17 17 17 17 18 18 13 10 9 8 9 21 23 24 24 24 24
10 12 13 13 13 13 13 13 13 13 13 14 14 14 14 15 15 16 17 18 18 18 18 18 18 18 17 16 16 17 16 16 11 9 8 8 12 22 23 23 24 24 25
9 11 11 11 12 12 12 12 12 13 13 14 14 14 15 15 15 16 17 17 18 18 18 18 18 17 17 17 17 17 15 14 13 11 8 8 16 22 23 24 24 24 25
9 11 9 9 10 11 12 12 11 12 12 13 14 14 13 13 15 15 16 17 17 18 18 18 18 17 17 17 18 17 16 15 9 7 9 8 17 22 23 24 24 24 24
8 9 10 9 9 8 8 11 12 12 12 12 13 12 13 13 13 13 12 16 17 17 17 17 17 17 16 16 15 14 14 12 9 8 6 10 20 23 23 23 23 23 23
7 7 9 9 9 9 9 10 11 11 12 12 11 14 12 8 8 8 11 14 16 17 17 17 17 16 14 13 13 13 11 7 7 6 6 15 21 22 23 22 22 22 22
7 7 7 8 8 8 8 9 7 7 8 8 8 9 6 6 6 9 11 13 14 15 16 16 15 11 8 5 7 9 6 8 6 6 8 17 21 21 21 21 21 22 22
8 7 7 7 7 7 6 7 5 5 6 7 9 8 5 6 7 7 5 7 8 9 6 7 5 4 5 4 4 5 7 6 5 5 8 16 19 20 20 20 21 21 21
9 9 8 7 7 7 6 6 6 5 6 6 8 8 6 5 6 6 5 5 5 3 4 3 4 6 6 6 7 7 7 6 5 5 8 14 17 18 19 20 20 20 20
10 10 10 8 7 7 6 5 6 6 7 7 7 7 8 7 7 7 6 5 5 4 4 5 5 6 6 6 7 7 7 7 7 7 6 14 15 17 18 18 18 18 18
11 11 11 10 8 7 6 5 5 5 6 6 7 9 10 8 7 7 6 5 5 5 5 5 6 6 5 5 7 7 7 6 7 6 6 9 15 15 15 16 16 17 17
10 10 10 10 9 8 7 7 5 5 5 5 6 9 10 9 9 8 7 6 5 5 7 6 7 6 6 6 7 6 5 6 6 6 6 5 6 12 13 14 15 15 15
10 10 10 9 10 10 8 7 5 4 5 5 6 7 10 10 10 8 7 7 7 7 6 7 7 6 6 5 5 5 5 5 6 5 5 5 4 5 9 13 13 13 14
11 11 11 11 11 10 8 6 6 5 5 5 5 6 8 10 11 10 8 8 9 7 7 8 6 7 8 6 6 5 4 4 4 6 6 5 5 4 4 9 13 12 12
10 11 11 11 11 9 7 5 4 5 5 4 5 6 8 8 11 10 9 10 10 9 8 8 8 6 7 7 7 6 4 3 4 4 5 4 4 4 4 4 4 7 11
10 11 12 12 12 10 8 8 7 7 5 4 5 6 8 9 11 11 9 11 11 10 11 11 10 10 7 8 6 4 3 3 3 3 4 3 3 4 4 4 3 2 3
13 12 11 12 13 12 10 8 6 5 5 5 4 6 8 9 11 11 13 12 12 10 11 10 12 8 6 7 6 5 3 1 2 3 3 4 4 3 3 4 3 3 3
13 13 12 12 12 12 10 6 4 4 3 5 7 7 8 10 11 11 14 13 14 13 13 15 16 12 10 8 5 7 7 7 3 2 4 4 4 3 3 4 4 3 4
12 10 10 10 10 10 10 9 10 9 10 10 7 6 7 9 10 12 13 14 15 13 14 16 16 9 13 11 6 4 4 7 7 4 2 4 5 5 5 5 5 4 4
10 10 9 9 9 10 10 11 10 9 8 5 5 7 8 8 9 11 13 13 14 13 15 15 14 10 10 11 8 5 3 3 4 6 5 4 4 4 5 5 5 4 4
6 7 8 9 9 9 10 10 11 10 8 6 7 8 8 6 7 10 11 13 13 12 14 15 16 14 12 11 7 6 7 7 6 6 5 4 4 4 5 5 5 5 5
Wind_Direction
132 131 134 125 117 112 103 96 91 88 87 86 84 82 80 79 79 79 80 84 85 83 79 76 74 73 73 74 75 75 77 77 74 70 66 66 65 64 63 61 60 56 60
133 134 136 128 122 115 108 101 97 93 91 89 87 86 85 83 83 82 83 87 88 85 82 79 77 75 75 75 76 76 76 76 78 75 69 66 67 67 66 65 65 64 63
130 132 137 130 125 120 114 109 104 99 95 92 90 89 88 87 87 86 86 89 89 87 83 81 79 77 77 77 76 74 72 70 73 71 70 65 67 69 69 68 67 66 65
132 139 141 134 130 126 121 116 109 103 99 96 94 93 92 91 89 88 89 91 89 87 85 83 81 80 79 77 75 73 69 69 71 70 66 64 68 73 72 71 69 68 68
135 136 134 139 136 132 127 121 114 107 103 100 98 96 95 94 91 89 89 89 88 88 87 86 84 82 80 76 73 70 70 72 70 71 70 66 69 76 75 73 71 69 68
134 130 139 143 142 138 134 128 120 114 108 105 103 101 99 98 95 92 91 91 91 91 89 88 86 83 79 75 70 67 71 72 67 64 63 66 72 78 77 76 74 72 70
134 130 144 144 144 142 139 134 127 120 115 111 109 107 105 103 100 98 96 96 95 94 92 90 88 84 79 73 66 65 72 76 71 64 62 66 77 81 80 78 75 73 71
131 129 142 144 146 146 144 139 133 127 123 119 116 113 111 108 106 104 102 101 100 99 97 94 91 87 82 74 67 64 66 75 76 73 65 67 81 82 81 78 76 73 70
132 132 143 150 151 149 148 144 140 134 129 126 121 116 111 109 108 106 105 106 105 103 101 98 94 90 83 75 69 64 65 66 63 65 72 71 82 83 82 79 77 74 72
137 145 152 158 158 156 153 150 146 141 135 128 121 116 110 108 106 105 106 110 110 108 106 102 97 91 82 73 65 62 66 63 60 60 64 79 83 83 81 79 77 76 74
150 158 159 163 163 163 161 158 152 146 139 133 130 130 127 123 118 111 113 114 114 113 111 107 103 96 83 68 61 64 63 63 58 57 65 84 85 84 82 81 79 77 75
172 174 167 168 167 165 166 158 163 157 152 151 150 157 152 139 124 116 112 114 116 116 116 116 116 110 92 68 61 66 65 62 57 56 69 84 87 86 85 83 81 79 77
180 179 177 174 170 167 161 164 170 165 167 167 166 179 143 121 122 121 117 112 115 122 119 126 109 74 68 63 60 64 68 64 55 51 60 81 89 89 88 86 84 81 78
188 187 186 180 173 172 169 173 169 168 174 173 175 173 146 142 145 146 146 150 158 142 138 108 89 84 78 70 67 69 72 73 63 51 53 71 88 92 92 89 86 83 80
193 188 184 185 180 178 178 181 176 174 177 176 173 171 161 157 160 156 158 160 160 140 133 117 110 104 93 83 77 74 76 78 74 61 49 58 77 88 91 91 88 85 83
194 191 182 186 188 184 184 187 183 179 175 174 173 176 171 166 165 161 157 159 152 146 136 129 124 110 99 94 88 80 78 80 83 77 61 52 60 76 88 91 89 87 85
194 189 184 185 188 190 191 194 192 182 174 176 175 178 176 170 168 163 159 159 151 140 132 126 118 111 110 103 95 86 81 79 83 82 75 61 48 54 76 88 90 89 87
190 189 187 182 189 194 193 194 193 190 181 179 176 179 180 174 169 163 162 161 152 145 141 137 136 132 122 118 110 100 88 83 84 84 77 72 60 47 56 75 83 88 88
191 187 187 184 189 194 193 192 193 191 189 181 177 179 182 177 171 167 167 163 156 152 149 149 146 144 135 125 114 104 96 92 92 92 84 79 81 78 57 67 64 73 83
191 187 187 185 188 189 187 191 194 197 194 184 183 183 181 179 174 168 166 164 161 157 157 155 150 142 134 131 116 97 92 100 98 107 107 96 99 104 90 73 50 56 74
188 189 187 188 187 186 190 193 196 201 193 190 193 188 183 181 177 172 167 166 168 170 168 162 150 144 140 134 111 95 69 83 110 126 127 124 114 110 107 94 76 55 56
191 193 192 193 189 190 196 193 190 186 192 194 190 197 191 185 181 177 172 172 173 170 164 163 155 147 159 169 142 132 137 189 227 166 144 147 149 139 133 123 113 101 94
191 194 197 197 194 192 188 175 172 176 176 189 199 202 197 189 185 182 178 175 176 175 176 173 172 164 170 191 185 157 160 183 177 190 187 169 165 164 156 145 144 140 136
193 189 192 195 195 190 184 186 184 192 200 203 195 193 191 191 190 187 182 181 181 181 181 182 183 179 169 179 201 209 167 146 150 161 201 193 183 181 177 174 162 164 152
182 180 186 190 196 192 189 191 195 204 207 191 181 186 192 195 197 192 187 186 187 186 184 184 187 185 181 183 179 168 147 137 136 143 174 193 197 198 184 178 171 174 176
156 169 177 187 197 195 194 194 199 205 203 203 196 190 191 193 201 201 194 192 191 190 187 188 189 192 192 190 185 174 167 164 177 160 154 164 186 201 184 181 179 179 184